{"data":{"norad_id":52681,"epoch":"2026-09-19T12:42:05.465088Z","epoch_age_seconds":150273,"freshness":"FRESH","line1":"1 52681U 22053AB  26262.52922992 -.00000085  00000+0  90218-5 0  9990","line2":"2 52681  53.1629 347.3376 0001292  72.2882 287.8260 15.31701294240480","mean_motion":15.31701294,"eccentricity":0.0001292,"inclination_deg":53.1629,"raan_deg":347.3376,"arg_perigee_deg":72.2882,"mean_anomaly_deg":287.826,"bstar":9.0218e-6,"rev_number":24048,"period_min":94.013108537597,"perigee_km":469.85126347228,"apogee_km":471.62101229111,"semimajor_km":6848.8731378817,"source":"CELESTRAK","updated_at":"2026-09-20T09:00:40.105240Z"}}